Location: Melbourne
(37.8170°S, 144.9670°E)
Time: 14:35:36
(UTC+10:00)

Transit 2A - All Passes

Search period start: 19 April 2015 00:00
Search period end: 29 April 2015 00:00
Orbit: 592 x 969 km, 66.7° (Epoch: 18 April)

Date Brightness Start Highest point End Pass type
(mag) Time Alt. Az. Time Alt. Az. Time Alt. Az.
19 Apr - 05:25:12 10° SSW 05:29:45 45° ESE 05:34:45 10° NE visible
19 Apr - 07:09:09 10° WSW 07:12:46 20° WNW 07:16:26 10° NNW daylight
19 Apr - 20:04:10 10° N 20:08:37 54° ENE 20:12:54 10° SE visible
19 Apr - 21:49:28 10° W 21:52:09 15° SW 21:54:39 10° SSW night (unlit)
20 Apr - 04:51:43 10° S 04:55:54 31° SE 05:00:27 10° ENE visible
20 Apr - 06:34:47 10° SW 06:39:03 30° WNW 06:43:36 10° N daylight
20 Apr - 19:30:49 10° N 19:34:55 33° ENE 19:38:53 10° SE visible
20 Apr - 21:14:37 10° WNW 21:18:09 22° SW 21:21:32 10° S visible
21 Apr - 04:18:22 10° S 04:21:57 21° SE 04:25:53 10° ENE visible
21 Apr - 06:00:42 10° SW 06:05:19 46° WNW 06:10:23 10° N visible
21 Apr - 18:57:50 10° NNE 19:01:13 21° ENE 19:04:37 10° ESE visible
21 Apr - 20:40:09 10° WNW 20:44:14 32° SW 20:48:10 10° S visible
22 Apr - 03:45:17 10° SSE 03:47:57 15° SE 03:50:56 10° E visible
22 Apr - 05:26:47 10° SSW 05:31:36 70° WNW 05:36:52 10° NNE visible
22 Apr - 18:25:28 10° NE 18:27:33 13° ENE 18:29:49 10° ESE visible
22 Apr - 20:05:59 10° NW 20:10:23 50° WSW 20:14:38 10° SSE visible
23 Apr - 03:13:09 10° SE 03:13:53 10° SE 03:14:53 10° SE visible
23 Apr - 04:53:00 10° SSW 04:57:50 78° ESE 05:03:09 10° NNE visible
23 Apr - 06:39:01 10° W 06:40:41 11° WNW 06:42:02 10° WNW daylight
23 Apr - 19:32:02 10° NNW 19:36:35 81° WSW 19:40:57 10° SSE visible
24 Apr - 04:19:21 10° SSW 04:24:01 51° ESE 04:29:10 10° NE visible
24 Apr - 06:03:36 10° WSW 06:07:00 18° WNW 06:10:23 10° NNW visible
24 Apr - 18:58:21 10° NNW 19:02:49 63° ENE 19:07:09 10° SE visible
24 Apr - 20:44:11 10° WSW 20:46:27 13° SW 20:48:32 10° SSW visible
25 Apr - 03:45:48 10° S 03:50:10 35° SE 03:54:58 10° ENE visible
25 Apr - 05:29:07 10° SW 05:33:17 27° WNW 05:37:41 10° NNW visible
25 Apr - 18:24:55 10° N 18:29:06 38° ENE 18:33:11 10° SE visible
25 Apr - 20:09:08 10° W 20:12:26 19° SW 20:15:35 10° S visible
26 Apr - 03:12:23 10° S 03:16:15 24° SE 03:20:29 10° ENE visible
26 Apr - 04:54:57 10° SW 04:59:34 40° WNW 05:04:34 10° N visible
26 Apr - 17:51:49 10° NNE 17:55:25 24° ENE 17:58:59 10° SE daylight
26 Apr - 19:34:34 10° WNW 19:38:29 29° SW 19:42:16 10° S visible
27 Apr - 02:39:11 10° S 02:42:16 17° SE 02:45:40 10° E night (unlit)
27 Apr - 04:21:00 10° SW 04:25:50 62° WNW 04:31:09 10° NNE visible
27 Apr - 17:19:12 10° NE 17:21:44 15° ENE 17:24:24 10° ESE daylight
27 Apr - 19:00:19 10° NW 19:04:36 44° WSW 19:08:46 10° SSE visible
28 Apr - 02:06:28 10° SSE 02:08:13 12° SE 02:10:14 10° ESE night (unlit)
28 Apr - 03:47:10 10° SSW 03:52:04 87° ESE 03:57:28 10° NNE visible
28 Apr - 18:26:19 10° NW 18:30:47 70° WSW 18:35:07 10° SSE visible
